UOSAT 2 (UO-11)

Last updated on Tue Jan 14 2025 00:03:00 GMT+0000 (Coordinated Universal Time)

1 14781U 84021B 25013.36346879 .00002203 00000+0 24287-3 0 9995 2 14781 97.7341 342.9166 0009504 100.7305 259.4983 14.88469019179736
UTC large
Height (km)
Speed (km/s)
/
Latitude / Longitude
Inclination (degrees)
Orbital Period (minutes)
Azimuth
Elevation
Range (km)
Doppler Factor

Next 0 passes for location: London (51.5072 / 0.1276)

Sorry there are no passes over London.